This demonstration page uses our WeatherBlox Daily Observations layout. Learn more.

39.29038, -76.61219

Hourly Observations for July 30, 2015

Temp ( °F °C ) Dew Point ( °F °C ) Humidity (%) Winds ( mph kmh ) Pressure ( in mb ) Visibility ( mi km ) Precip ( " mm )
12:54 am 00:54 Mostly Clear 79 26.1 74 23.3 85 85 undefined N/A 29.95 1014 N/A 0 0
1:54 am 01:54 undefined 78 25.6 74 23.3 87 87 undefined N/A 29.94 1014 N/A 0 0
2:54 am 02:54 Clear 82 27.8 58 14.3 44 44 undefined N/A 29.86 1011 N/A 0 0
3:54 am 03:54 undefined 78 25.6 74 23.3 87 87 undefined N/A 29.91 1013 N/A 0 0
4:54 am 04:54 undefined 78 25.6 73 22.8 85 85 undefined N/A 29.91 1013 N/A 0 0
5:54 am 05:54 undefined 77 25 73 22.8 88 88 undefined N/A 29.91 1013 N/A 0 0
6:54 am 06:54 Mostly Sunny 79 26.1 69 20.6 72 72 undefined N/A 29.94 1014 N/A 0 0
7:54 am 07:54 undefined 80 26.7 73 22.8 79 79 undefined N/A 29.91 1013 N/A 0 0
8:54 am 08:54 Cloudy 82 27.8 73 22.8 74 74 undefined N/A 29.91 1013 N/A 0 0
9:54 am 09:54 undefined 84 28.9 73 22.8 70 70 undefined N/A 29.9 1012 N/A 0 0
10:54 am 10:54 undefined 86 30 73 22.8 65 65 undefined N/A 29.9 1013 N/A 0 0
11:54 am 11:54 undefined 87 30.6 74 23.3 65 65 undefined N/A 29.9 1013 N/A 0 0
12:54 pm 12:54 undefined 89 31.7 74 23.3 61 61 undefined N/A 29.88 1012 N/A 0 0
1:54 pm 13:54 Partly Cloudy 89 31.7 74 23.3 61 61 undefined N/A 29.86 1011 N/A 0 0
2:54 pm 14:54 undefined 77 25 75 23.9 94 94 undefined N/A 29.88 1012 N/A 0.38 9.652
3:54 pm 15:54 undefined 80 26.7 74 23.3 82 82 undefined N/A 29.85 1011 N/A 0 0
4:54 pm 16:54 Mostly Cloudy 83 28.3 74 23.3 74 74 undefined N/A 29.85 1011 N/A 0 0
5:54 pm 17:54 Mostly Sunny 84 28.9 75 23.9 74 74 undefined N/A 29.84 1010 N/A 0 0
6:54 pm 18:54 undefined 84 28.9 75 23.9 74 74 undefined N/A 29.84 1010 N/A 0 0
7:54 pm 19:54 Partly Cloudy 77 25 65 18.3 66 66 undefined N/A 29.97 1015 N/A 0 0
8:54 pm 20:54 undefined 82 27.8 76 24.4 82 82 undefined N/A 29.87 1011 N/A 0 0
9:54 pm 21:54 undefined 82 27.8 76 24.4 82 82 undefined N/A 29.88 1012 N/A 0 0
10:54 pm 22:54 undefined 80 26.7 74 23.3 82 82 undefined N/A 29.89 1012 N/A 0 0
11:54 pm 23:54 undefined 79 26.1 70 21.1 74 74 undefined N/A 29.9 1013 N/A 0 0

Powered by AerisWeather